(°C)
19°
21°
22°
23°
23°
22°
20°
(°C)
17°
19°
20°
21°
22°
21°
19°
СВ
З
З
ЮЮЗ
ЮВ
ЮЮВ
З
(км/ч)
5-14
6-14
7-12
6-14
5-13
4-12
4-11
(мм)
3
1.4
1.6
1.8
0
0
2.7
(%)
78
84
84
73
58
62
79

Высота солнцестояния

/ 59.5°
sun-icon
UV 4
05:35
20:45
Полнолуние (185°)
21:33
05:38

METAR для Инсбрук (LOWI)

Время Условия Температура/
Точка росы
Ветер Видимость Погода Облачность Давление Изменить Необработанный
VFR 17°C / 14°C 250º variable 220º to 280º 8kt >10km Showers Rain 3.00mm precipitation Vertical Visibility of 0ft.
Scattered Clouds 6000ft
Few Clouds 6000ft
Broken Clouds 7000ft
1022 Temporary: Light Showers Rain . LOWI 161120Z 25008KT 220V280 9999 SHRA FEW040 SCT060 FEW060CB BKN070 17/14 Q1022 TEMPO -SHRA
VFR 18°C / 14°C 270º variable 240º to 320º 9kt >10km Light Showers Rain 3.00mm precipitation Vertical Visibility of 0ft.
Scattered Clouds 6000ft
Few Clouds 6000ft
Broken Clouds 7000ft
1021 Temporary: Showers Rain . LOWI 161050Z 27009KT 240V320 9999 -SHRA FEW040 SCT060 FEW060CB BKN070 18/14 Q1021 TEMPO SHRA
VFR 17°C / 15°C 310º 8kt >10km Light Showers Rain 3.00mm precipitation Vertical Visibility of 0ft.
Scattered Clouds 6000ft
Few Clouds 6000ft
Broken Clouds 7000ft
1021 Temporary: Showers Rain . LOWI 161020Z 31008KT 9999 -SHRA FEW040 SCT060 FEW060CB BKN070 17/15 Q1021 TEMPO SHRA
VFR 16°C / 14°C 280º 14kt >10km Light Showers Rain 3.00mm precipitation Vertical Visibility of 0ft.
Scattered Clouds 6000ft
Broken Clouds 7000ft
1021 Temporary: Showers Rain . LOWI 160950Z 28014KT 9999 -SHRA FEW035 SCT060 BKN070 16/14 Q1021 RETSRA TEMPO SHRA
VFR 19°C / 13°C 260º 18kt >10km Thunderstorm Rain 3.00mm precipitation Vertical Visibility of 0ft.
Scattered Clouds 6000ft
Few Clouds 6000ft
Broken Clouds 9000ft
1020 Temporary: Showers Rain . LOWI 160920Z 26018KT 9999 TSRA FEW035 SCT060 FEW060CB BKN090 19/13 Q1020 TEMPO SHRA
VFR 21°C / 14°C 270º variable 220º to 300º 9kt >10km - Few Clouds 3500ft
Scattered Clouds 6000ft
Broken Clouds 9000ft
1020 Temporary: Showers Rain . LOWI 160850Z 27009KT 220V300 9999 FEW035 SCT060 BKN090 21/14 Q1020 TEMPO SHRA
VFR 21°C / 15°C variable 2kt >10km - Few Clouds 3500ft
Scattered Clouds 6000ft
Broken Clouds 9000ft
1020 Temporary: from 0900 Showers Rain . LOWI 160820Z VRB02KT 9999 FEW035 SCT060 BKN090 21/15 Q1020 TEMPO FM0900 SHRA
VFR 20°C / 15°C variable 1kt >10km - Few Clouds 2500ft
Broken Clouds 9000ft
1020 No Significant change LOWI 160750Z VRB01KT 9999 FEW025 BKN090 20/15 Q1020 NOSIG
VFR 19°C / 15°C variable 2kt >10km - Few Clouds 2500ft
Few Clouds 6000ft
Scattered Clouds 9000ft
1020 No Significant change LOWI 160720Z VRB02KT 9999 FEW025 FEW060CB SCT090 19/15 Q1020 NOSIG
VFR 18°C / 15°C variable 2kt >10km - Few Clouds 800ft 1020 No Significant change LOWI 160650Z VRB02KT 9999 FEW008 18/15 Q1020 NOSIG
VFR 17°C / 15°C variable 1kt >10km - Few Clouds 500ft 1020 No Significant change LOWI 160620Z VRB01KT 9999 FEW005 17/15 Q1020 NOSIG
VFR 16°C / 15°C variable 2kt >10km - Few Clouds 500ft
Scattered Clouds 7000ft
1020 No Significant change LOWI 160550Z VRB02KT 9999 FEW005 SCT070 16/15 Q1020 NOSIG
VFR 15°C / 14°C variable 1kt >10km - Few Clouds 800ft
Broken Clouds 8000ft
1020 No Significant change LOWI 160520Z VRB01KT 9999 FEW008 BKN080 15/14 Q1020 NOSIG
VFR 15°C / 14°C variable 1kt >10km - Few Clouds 800ft
Broken Clouds 8000ft
1020 No Significant change LOWI 160450Z VRB01KT 9999 FEW008 BKN080 15/14 Q1020 NOSIG
VFR 15°C / 14°C variable 2kt >10km - Few Clouds 800ft
Broken Clouds 8000ft
1020 No Significant change LOWI 160420Z VRB02KT 9999 FEW008 BKN080 15/14 Q1020 RESHRA NOSIG
VFR 16°C / 14°C variable 2kt >10km Showers Rain 3.00mm precipitation Vertical Visibility of 0ft.
Broken Clouds 8000ft
1020 Becoming: NSW LOWI 160350Z VRB02KT 9999 SHRA FEW015 BKN080 16/14 Q1020 BECMG NSW
VFR 16°C / 14°C variable 2kt >10km Light Rain 1.00mm precipitation Vertical Visibility of 0ft.
Broken Clouds 9000ft
1019 - LOWI 160320Z AUTO VRB02KT 9999 -RA FEW046 BKN090 16/14 Q1019
VFR 16°C / 15°C 110º variable 070º to 150º 3kt >10km - Few Clouds 7000ft
Scattered Clouds 9000ft
Broken Clouds 10000ft
1019 - LOWI 160250Z AUTO 11003KT 070V150 9999 FEW070 SCT090 BKN100 16/15 Q1019
VFR 16°C / 14°C variable 4kt >10km - Broken Clouds 8000ft 1019 - LOWI 160220Z AUTO VRB04KT 9999 BKN080 16/14 Q1019
VFR 16°C / 14°C variable 2kt >10km in the Vicinity Thunderstorm Vertical Visibility of 0ft.
Broken Clouds 8000ft
1019 - LOWI 160150Z AUTO VRB02KT 9999 VCTS //////CB FEW070 BKN080 16/14 Q1019
VFR 17°C / 13°C 250º 3kt >10km Light Showers Rain 3.00mm precipitation Vertical Visibility of 0ft.
Scattered Clouds 4800ft
Broken Clouds 8000ft
1019 - LOWI 160120Z AUTO 25003KT 9999 -SHRA //////CB FEW019 SCT048 BKN080 17/13 Q1019 RESHRA
VFR 17°C / 12°C variable 1kt >10km - Broken Clouds 7000ft 1019 - LOWI 160050Z AUTO VRB01KT 9999 //////CB BKN070 17/12 Q1019
VFR 17°C / 12°C variable 2kt >10km - Broken Clouds 7000ft 1018 - LOWI 160020Z AUTO VRB02KT 9999 BKN070 17/12 Q1018
VFR 17°C / 12°C variable 2kt >10km - Few Clouds 7000ft
Broken Clouds 8000ft
1019 - LOWI 152350Z AUTO VRB02KT 9999 FEW070 BKN080 17/12 Q1019

VFR

17°C / 14°C

[Больше]
Ветер 250º variable 220º to 280º 8kt
Видимость >10km
Погода Showers Rain 3.00mm precipitation
Облачность Vertical Visibility of 0ft.
Scattered Clouds 6000ft
Few Clouds 6000ft
Broken Clouds 7000ft
Давление 1022
Изменить Temporary: Light Showers Rain .
Необработанный LOWI 161120Z 25008KT 220V280 9999 SHRA FEW040 SCT060 FEW060CB BKN070 17/14 Q1022 TEMPO -SHRA

VFR

18°C / 14°C

[Больше]
Ветер 270º variable 240º to 320º 9kt
Видимость >10km
Погода Light Showers Rain 3.00mm precipitation
Облачность Vertical Visibility of 0ft.
Scattered Clouds 6000ft
Few Clouds 6000ft
Broken Clouds 7000ft
Давление 1021
Изменить Temporary: Showers Rain .
Необработанный LOWI 161050Z 27009KT 240V320 9999 -SHRA FEW040 SCT060 FEW060CB BKN070 18/14 Q1021 TEMPO SHRA

VFR

17°C / 15°C

[Больше]
Ветер 310º 8kt
Видимость >10km
Погода Light Showers Rain 3.00mm precipitation
Облачность Vertical Visibility of 0ft.
Scattered Clouds 6000ft
Few Clouds 6000ft
Broken Clouds 7000ft
Давление 1021
Изменить Temporary: Showers Rain .
Необработанный LOWI 161020Z 31008KT 9999 -SHRA FEW040 SCT060 FEW060CB BKN070 17/15 Q1021 TEMPO SHRA

VFR

16°C / 14°C

[Больше]
Ветер 280º 14kt
Видимость >10km
Погода Light Showers Rain 3.00mm precipitation
Облачность Vertical Visibility of 0ft.
Scattered Clouds 6000ft
Broken Clouds 7000ft
Давление 1021
Изменить Temporary: Showers Rain .
Необработанный LOWI 160950Z 28014KT 9999 -SHRA FEW035 SCT060 BKN070 16/14 Q1021 RETSRA TEMPO SHRA

VFR

19°C / 13°C

[Больше]
Ветер 260º 18kt
Видимость >10km
Погода Thunderstorm Rain 3.00mm precipitation
Облачность Vertical Visibility of 0ft.
Scattered Clouds 6000ft
Few Clouds 6000ft
Broken Clouds 9000ft
Давление 1020
Изменить Temporary: Showers Rain .
Необработанный LOWI 160920Z 26018KT 9999 TSRA FEW035 SCT060 FEW060CB BKN090 19/13 Q1020 TEMPO SHRA

VFR

21°C / 14°C

[Больше]
Ветер 270º variable 220º to 300º 9kt
Видимость >10km
Погода -
Облачность Few Clouds 3500ft
Scattered Clouds 6000ft
Broken Clouds 9000ft
Давление 1020
Изменить Temporary: Showers Rain .
Необработанный LOWI 160850Z 27009KT 220V300 9999 FEW035 SCT060 BKN090 21/14 Q1020 TEMPO SHRA

VFR

21°C / 15°C

[Больше]
Ветер variable 2kt
Видимость >10km
Погода -
Облачность Few Clouds 3500ft
Scattered Clouds 6000ft
Broken Clouds 9000ft
Давление 1020
Изменить Temporary: from 0900 Showers Rain .
Необработанный LOWI 160820Z VRB02KT 9999 FEW035 SCT060 BKN090 21/15 Q1020 TEMPO FM0900 SHRA

VFR

20°C / 15°C

[Больше]
Ветер variable 1kt
Видимость >10km
Погода -
Облачность Few Clouds 2500ft
Broken Clouds 9000ft
Давление 1020
Изменить No Significant change
Необработанный LOWI 160750Z VRB01KT 9999 FEW025 BKN090 20/15 Q1020 NOSIG

VFR

19°C / 15°C

[Больше]
Ветер variable 2kt
Видимость >10km
Погода -
Облачность Few Clouds 2500ft
Few Clouds 6000ft
Scattered Clouds 9000ft
Давление 1020
Изменить No Significant change
Необработанный LOWI 160720Z VRB02KT 9999 FEW025 FEW060CB SCT090 19/15 Q1020 NOSIG

VFR

18°C / 15°C

[Больше]
Ветер variable 2kt
Видимость >10km
Погода -
Облачность Few Clouds 800ft
Давление 1020
Изменить No Significant change
Необработанный LOWI 160650Z VRB02KT 9999 FEW008 18/15 Q1020 NOSIG

VFR

17°C / 15°C

[Больше]
Ветер variable 1kt
Видимость >10km
Погода -
Облачность Few Clouds 500ft
Давление 1020
Изменить No Significant change
Необработанный LOWI 160620Z VRB01KT 9999 FEW005 17/15 Q1020 NOSIG

VFR

16°C / 15°C

[Больше]
Ветер variable 2kt
Видимость >10km
Погода -
Облачность Few Clouds 500ft
Scattered Clouds 7000ft
Давление 1020
Изменить No Significant change
Необработанный LOWI 160550Z VRB02KT 9999 FEW005 SCT070 16/15 Q1020 NOSIG

VFR

15°C / 14°C

[Больше]
Ветер variable 1kt
Видимость >10km
Погода -
Облачность Few Clouds 800ft
Broken Clouds 8000ft
Давление 1020
Изменить No Significant change
Необработанный LOWI 160520Z VRB01KT 9999 FEW008 BKN080 15/14 Q1020 NOSIG

VFR

15°C / 14°C

[Больше]
Ветер variable 1kt
Видимость >10km
Погода -
Облачность Few Clouds 800ft
Broken Clouds 8000ft
Давление 1020
Изменить No Significant change
Необработанный LOWI 160450Z VRB01KT 9999 FEW008 BKN080 15/14 Q1020 NOSIG

VFR

15°C / 14°C

[Больше]
Ветер variable 2kt
Видимость >10km
Погода -
Облачность Few Clouds 800ft
Broken Clouds 8000ft
Давление 1020
Изменить No Significant change
Необработанный LOWI 160420Z VRB02KT 9999 FEW008 BKN080 15/14 Q1020 RESHRA NOSIG

VFR

16°C / 14°C

[Больше]
Ветер variable 2kt
Видимость >10km
Погода Showers Rain 3.00mm precipitation
Облачность Vertical Visibility of 0ft.
Broken Clouds 8000ft
Давление 1020
Изменить Becoming: NSW
Необработанный LOWI 160350Z VRB02KT 9999 SHRA FEW015 BKN080 16/14 Q1020 BECMG NSW

VFR

16°C / 14°C

[Больше]
Ветер variable 2kt
Видимость >10km
Погода Light Rain 1.00mm precipitation
Облачность Vertical Visibility of 0ft.
Broken Clouds 9000ft
Давление 1019
Изменить -
Необработанный LOWI 160320Z AUTO VRB02KT 9999 -RA FEW046 BKN090 16/14 Q1019

VFR

16°C / 15°C

[Больше]
Ветер 110º variable 070º to 150º 3kt
Видимость >10km
Погода -
Облачность Few Clouds 7000ft
Scattered Clouds 9000ft
Broken Clouds 10000ft
Давление 1019
Изменить -
Необработанный LOWI 160250Z AUTO 11003KT 070V150 9999 FEW070 SCT090 BKN100 16/15 Q1019

VFR

16°C / 14°C

[Больше]
Ветер variable 4kt
Видимость >10km
Погода -
Облачность Broken Clouds 8000ft
Давление 1019
Изменить -
Необработанный LOWI 160220Z AUTO VRB04KT 9999 BKN080 16/14 Q1019

VFR

16°C / 14°C

[Больше]
Ветер variable 2kt
Видимость >10km
Погода in the Vicinity Thunderstorm
Облачность Vertical Visibility of 0ft.
Broken Clouds 8000ft
Давление 1019
Изменить -
Необработанный LOWI 160150Z AUTO VRB02KT 9999 VCTS //////CB FEW070 BKN080 16/14 Q1019

VFR

17°C / 13°C

[Больше]
Ветер 250º 3kt
Видимость >10km
Погода Light Showers Rain 3.00mm precipitation
Облачность Vertical Visibility of 0ft.
Scattered Clouds 4800ft
Broken Clouds 8000ft
Давление 1019
Изменить -
Необработанный LOWI 160120Z AUTO 25003KT 9999 -SHRA //////CB FEW019 SCT048 BKN080 17/13 Q1019 RESHRA

VFR

17°C / 12°C

[Больше]
Ветер variable 1kt
Видимость >10km
Погода -
Облачность Broken Clouds 7000ft
Давление 1019
Изменить -
Необработанный LOWI 160050Z AUTO VRB01KT 9999 //////CB BKN070 17/12 Q1019

VFR

17°C / 12°C

[Больше]
Ветер variable 2kt
Видимость >10km
Погода -
Облачность Broken Clouds 7000ft
Давление 1018
Изменить -
Необработанный LOWI 160020Z AUTO VRB02KT 9999 BKN070 17/12 Q1018

VFR

17°C / 12°C

[Больше]
Ветер variable 2kt
Видимость >10km
Погода -
Облачность Few Clouds 7000ft
Broken Clouds 8000ft
Давление 1019
Изменить -
Необработанный LOWI 152350Z AUTO VRB02KT 9999 FEW070 BKN080 17/12 Q1019

TAF для Инсбрук (LOWI)

From till


Maximum Temperature 24ºC on . Minimum Temperature 13ºC on .
From till Wind 270º 6kt. Visibility 10km or more. Few Clouds 4000ft. Broken Clouds 6000ft.
Temporarly from till Showers Rain . Broken Clouds 6000ft. Few Clouds 6000ft.
With 40% probability, Temporarly from till Wind 250º 15kt. Gust 25kt. Thunderstorm Rain . Scattered Clouds 5000ft. Broken Clouds 6000ft.
Temporarly from till Rain .

Необработанный: TAF LOWI 161115Z 1612/1712 27006KT 9999 FEW040 BKN060 TX24/1712Z TN13/1703Z TEMPO 1612/1620 SHRA BKN060 FEW060CB PROB40 TEMPO 1612/1620 25015G25KT TSRA SCT050CB BKN060 TEMPO 1620/1624 RA

Радар Инсбрук

Морось
Незначительные
Умеренные
Сильные
Очень Сильные
Град

Индикатор местности находится на Инсбрук. Анимация показывает радар осадков за последний час, а также прогноз погоды для 2h. Морось или небольшой снег могут быть невидимы для радара. Интенсивность осадков имеет цветовую кодировку - от светло-голубого до оранжевого.
Copyright 2022 Deutscher Wetterdienst / meteoblue.

Текущие спутниковые изображения и снимки дождя для Инсбрук, Австрия

Указатель местности находится на Инсбрук. [Больше]

Спутниковое изображение в реальном времени сочетает в себе видимый свет в дневное время с инфракрасным излучением в ночное время. Ночью изображение получается не темным, так как инфракрасное излучение может обнаружить разницу температур. К сожалению, низкие облака и туман трудно отличить от температуры у поверхности земли и поэтому могут быть почти незаметны ночью. Спутниковые снимки Meteosat для Европы обновляются каждые 5 минут в режиме реального времени.Снимки GOES-16/GOES-17 (Северная и Южная Америка) и Химавари (Азия) обновляются каждые 10 минут.

Вероятность осадков оценивается по данным радиолокаторов и спутников. Спутниковые данные о возможности осадков в ночное время менее точные, чем дневные данные. Оранжевыми крестами отмечаются места,где обнаруживается молния (болееЕвропа).

Копирайт 2022 EUMETSAT / meteoblue. Данные о молниях предоставляются со стороны nowcast.

Обратно к последним данным